| time (UTC) | temp F | wind direction | speed MPH | gust MPH | rain 1hr in | rain 24hr in | rain mn in | humidity % | barometer mb |
| 20260506090307 | 35 | 280 | 9.0 | 0.0 | 0.00 | 0.00 | 0.00 | 69 | 1006.0 |
| 20260506083307 | 35 | 320 | 8.0 | 0.0 | 0.00 | 0.00 | 0.00 | 80 | 1005.0 |
| 20260506073307 | 33 | 330 | 7.0 | 0.0 | 0.00 | 0.00 | 0.00 | 80 | 1005.0 |
| 20260506070306 | 33 | 310 | 8.0 | 0.0 | 0.00 | 0.00 | 0.00 | 80 | 1004.0 |
| 20260506060306 | 32 | 290 | 8.0 | 0.0 | 0.00 | 0.00 | 0.00 | 92 | 1004.0 |
| 20260506050306 | 32 | 360 | 5.0 | 0.0 | 0.00 | 0.00 | 0.00 | 10 | 1003.0 |
| 20260506043307 | 30 | 0 | 2.0 | 0.0 | 0.00 | 0.00 | 0.00 | 10 | 1003.0 |
| 20260506040307 | 30 | 0 | 3.0 | 0.0 | 0.00 | 0.00 | 0.00 | 10 | 1003.0 |
| 20260506033307 | 30 | 90 | 2.0 | 0.0 | 0.00 | 0.00 | 0.00 | 10 | 1003.0 |
| 20260506030307 | 30 | 0 | 0.0 | 0.0 | 0.00 | 0.00 | 0.00 | 10 | 1002.0 |
| 20260506023306 | 30 | 210 | 2.0 | 0.0 | 0.00 | 0.00 | 0.00 | 10 | 1002.0 |
| 20260506020306 | 30 | 220 | 2.0 | 0.0 | 0.00 | 0.00 | 0.00 | 10 | 1002.0 |
| 20260506013307 | 30 | 0 | 0.0 | 0.0 | 0.00 | 0.00 | 0.00 | 10 | 1002.0 |
| 20260506010307 | 30 | 90 | 2.0 | 0.0 | 0.00 | 0.00 | 0.00 | 10 | 1002.0 |
| 20260506003306 | 30 | 0 | 2.0 | 0.0 | 0.00 | 0.00 | 0.00 | 10 | 1002.0 |
| 20260506000307 | 30 | 140 | 2.0 | 0.0 | 0.00 | 0.00 | 0.00 | 92 | 1002.0 |
| 20260505233307 | 32 | 0 | 3.0 | 0.0 | 0.00 | 0.00 | 0.00 | 80 | 1001.0 |
| 20260505230306 | 32 | 190 | 2.0 | 0.0 | 0.00 | 0.00 | 0.00 | 80 | 1002.0 |
| 20260505223306 | 32 | 0 | 3.0 | 0.0 | 0.00 | 0.00 | 0.00 | 80 | 1002.0 |
| 20260505220306 | 32 | 0 | 2.0 | 0.0 | 0.00 | 0.00 | 0.00 | 80 | 1002.0 |
| 20260505213306 | 32 | 0 | 2.0 | 0.0 | 0.00 | 0.00 | 0.00 | 80 | 1002.0 |
| 20260505210306 | 32 | 0 | 3.0 | 0.0 | 0.00 | 0.00 | 0.00 | 80 | 1002.0 |
| 20260505203306 | 32 | 0 | 2.0 | 0.0 | 0.00 | 0.00 | 0.00 | 80 | 1002.0 |
| 20260505200306 | 32 | 0 | 2.0 | 0.0 | 0.00 | 0.00 | 0.00 | 80 | 1002.0 |
| 20260505193306 | 32 | 330 | 3.0 | 0.0 | 0.00 | 0.00 | 0.00 | 80 | 1002.0 |
| 20260505190306 | 32 | 0 | 3.0 | 0.0 | 0.00 | 0.00 | 0.00 | 80 | 1002.0 |
| 20260505183306 | 32 | 280 | 5.0 | 0.0 | 0.00 | 0.00 | 0.00 | 74 | 1002.0 |
| 20260505180307 | 33 | 320 | 7.0 | 0.0 | 0.00 | 0.00 | 0.00 | 69 | 1002.0 |
| 20260505173307 | 33 | 280 | 7.0 | 0.0 | 0.00 | 0.00 | 0.00 | 64 | 1002.0 |
| 20260505170307 | 35 | 320 | 9.0 | 0.0 | 0.00 | 0.00 | 0.00 | 59 | 1001.0 |
| 20260505163307 | 35 | 310 | 12.0 | 0.0 | 0.00 | 0.00 | 0.00 | 55 | 1001.0 |
| 20260505160307 | 35 | 310 | 14.0 | 0.0 | 0.00 | 0.00 | 0.00 | 59 | 1001.0 |
| 20260505153307 | 35 | 320 | 9.0 | 0.0 | 0.00 | 0.00 | 0.00 | 64 | 1001.0 |
| 20260505150306 | 35 | 320 | 12.0 | 0.0 | 0.00 | 0.00 | 0.00 | 69 | 1002.0 |
| 20260505140307 | 35 | 310 | 14.0 | 0.0 | 0.00 | 0.00 | 0.00 | 64 | 1001.0 |
| 20260505130307 | 35 | 300 | 14.0 | 0.0 | 0.00 | 0.00 | 0.00 | 59 | 1001.0 |
| 20260505123306 | 35 | 310 | 12.0 | 0.0 | 0.00 | 0.00 | 0.00 | 74 | 1001.0 |
| 20260505120306 | 35 | 300 | 14.0 | 0.0 | 0.00 | 0.00 | 0.00 | 59 | 1000.0 |
| 20260505113307 | 35 | 280 | 14.0 | 0.0 | 0.00 | 0.00 | 0.00 | 64 | 1000.0 |
| 20260505110307 | 35 | 300 | 14.0 | 0.0 | 0.00 | 0.00 | 0.00 | 64 | 1000.0 |
| 20260505100307 | 33 | 300 | 12.0 | 0.0 | 0.00 | 0.00 | 0.00 | 64 | 1000.0 |
| 20260505093306 | 33 | 310 | 13.0 | 0.0 | 0.00 | 0.00 | 0.00 | 69 | 999.0 |